Weather History for KMCI - December, 2011

Change the Weather History Date:

Monday, December 26, 2011

  Actual Average Record
Temperature  
Mean Temperature 37 °F 29 °F  
Max Temperature 49 °F 38 °F 66 °F (2008)
Min Temperature 24 °F 21 °F -13 °F (1892)
Degree Days  
Heating Degree Days 28 36  
Month to date heating degree days 780 860  
Since 1 July heating degree days 1704 1862  
Cooling Degree Days 0 0  
Month to date cooling degree days 0 0  
Year to date cooling degree days 1598 1360  
Moisture  
Dew Point 29 °F    
Average Humidity 71    
Maximum Humidity 88    
Minimum Humidity 54    
Precipitation  
Precipitation T in 0.04 in 1.14 in (1942)
Month to date precipitation 2.96 1.35  
Year to date precipitation 36.85 38.68  
Snow  
Snow T in 0.20 in 3.00 in (1939)
Month to date snowfall 0.1 4.0  
Since 1 July snowfall 0.1 5.4  
Snow Depth 0.00 in    
Sea Level Pressure  
Sea Level Pressure 30.11 in    
Wind  
Wind Speed 7 mph (SSW)    
Max Wind Speed 15 mph    
Max Gust Speed 20 mph    
Visibility 10 miles    
Events      
T = Trace of Precipitation, MM = Missing Value Source: NWS Daily Summary

Daily Weather History Graph

Daily Weather History Graph

Search for Another Location

Airport or City:

Trip Planner

Search our weather history database for the weather conditions in past years. The results will help you decide how hot, cold, wet, or windy it might be!

Date:

Astronomy

Dec. 26, 2011 Rise Set
Actual Time 7:37 AM CST 5:01 PM CST
Civil Twilight 7:07 AM CST 5:31 PM CST
Nautical Twilight 6:33 AM CST 6:05 PM CST
Astronomical Twilight 6:00 AM CST 6:38 PM CST
Moon 8:58 AM CST (12/26) 7:29 PM CST (12/26)
Length of Visible Light 10h 24m
Length of Day
9h 24m
Waxing Crescent, 5% of the Moon is Illuminated
Dec 26
Waxing Crescent
Jan 1
First Quarter
Jan 9
Full
Jan 16
Last Quarter
Jan 23
New

Hourly Weather History & Observations

Time (CST) Temp. Windchill Dew Point Humidity Pressure Visibility Wind Dir Wind Speed Gust Speed Precip Events Conditions
12:53 AM 28.0 °F 20.8 °F 23.0 °F 81% 30.34 in 10.0 mi SSW 6.9 mph - N/A   Clear
1:53 AM 28.0 °F 22.8 °F 24.1 °F 85% 30.32 in 10.0 mi SSW 4.6 mph - N/A   Clear
2:53 AM 25.0 °F 18.1 °F 21.9 °F 88% 30.31 in 10.0 mi South 5.8 mph - N/A   Clear
3:53 AM 27.0 °F 21.6 °F 23.0 °F 85% 30.28 in 10.0 mi South 4.6 mph - N/A   Clear
4:53 AM 26.1 °F 20.5 °F 21.9 °F 84% 30.26 in 10.0 mi SSE 4.6 mph - N/A   Clear
5:53 AM 26.6 °F 17.5 °F 21.2 °F 80% 30.21 in 10.0 mi SE 9.2 mph - N/A   Clear
6:53 AM 28.9 °F 20.4 °F 24.1 °F 82% 30.22 in 10.0 mi SE 9.2 mph - N/A   Scattered Clouds
7:53 AM 30.9 °F 21.7 °F 26.1 °F 82% 30.22 in 10.0 mi South 11.5 mph - N/A   Mostly Cloudy
8:53 AM 34.0 °F 26.0 °F 27.0 °F 75% 30.20 in 10.0 mi SSE 10.4 mph - N/A   Mostly Cloudy
9:53 AM 36.0 °F 30.3 °F 28.0 °F 73% 30.19 in 10.0 mi SSW 6.9 mph - N/A   Mostly Cloudy
10:53 AM 36.0 °F 32.1 °F 28.9 °F 76% 30.16 in 10.0 mi WNW 4.6 mph - 0.00 in   Overcast
11:53 AM 42.1 °F 37.7 °F 30.9 °F 65% 30.12 in 10.0 mi SSW 6.9 mph - N/A   Mostly Cloudy
12:53 PM 46.0 °F 41.4 °F 32.0 °F 58% 30.06 in 10.0 mi SW 9.2 mph - N/A   Scattered Clouds
1:53 PM 48.0 °F - 32.0 °F 54% 30.01 in 10.0 mi SW 10.4 mph - N/A   Mostly Cloudy
2:53 PM 46.9 °F - 33.1 °F 59% 30.03 in 10.0 mi SW 10.4 mph - N/A   Overcast
3:53 PM 46.9 °F - 34.0 °F 61% 30.01 in 10.0 mi SSW 11.5 mph - N/A   Overcast
4:53 PM 45.0 °F 39.7 °F 34.0 °F 65% 30.02 in 10.0 mi SSW 10.4 mph - N/A   Overcast
5:53 PM 43.0 °F 39.5 °F 35.1 °F 74% 30.01 in 10.0 mi SSW 5.8 mph - N/A   Overcast
6:53 PM 39.9 °F 37.8 °F 33.1 °F 77% 30.00 in 10.0 mi SSW 3.5 mph - N/A   Overcast
7:53 PM 39.9 °F 35.8 °F 33.1 °F 77% 29.98 in 10.0 mi SW 5.8 mph - N/A   Mostly Cloudy
8:53 PM 39.9 °F - 34.0 °F 79% 29.96 in 10.0 mi Calm Calm - N/A   Overcast
9:53 PM 39.9 °F 37.8 °F 34.0 °F 79% 29.95 in 10.0 mi SW 3.5 mph - N/A   Overcast
10:53 PM 37.0 °F 31.6 °F 32.0 °F 82% 29.94 in 10.0 mi West 6.9 mph - N/A   Scattered Clouds
11:53 PM 36.0 °F 30.3 °F 30.9 °F 82% 29.91 in 10.0 mi West 6.9 mph - N/A   Partly Cloudy